Terminal Aerodrome Forecast
Issued by NWS Houston/Galveston, TX

Home | Current Version | Previous Version | Text Only | Print | Product List | Glossary On
Versions: 1 2 3 4 5 6 7 8 9 10 11 12 13 14 15 16 17 18 19 20 21 22 23 24
000
FTUS44 KHGX 192331
TAFGLS
TAF
KGLS 192331Z 2000/2024 17011KT P6SM FEW040 SCT045
     FM200200 21006KT 4SM BR BKN010
     FM200600 19005KT 2SM BR OVC007
      TEMPO 2009/2012 1/2SM FG OVC002
     FM201500 19006KT 4SM BR BKN007 OVC012=

USA.gov is the U.S. government's official web portal to all federal, state and local government web resources and services.